Flag for Moldova Weather past 2 weeks in Tiraspol, Moldova

Now
59 °F

Overcast.


Feels Like: 56 °F
Forecast: 55 / 72 °F
Wind: 16 mph from Northwest

Location: Chisinau International Airport

Current Time: May 28, 2015 at 5:46:48 PM

Latest Report: May 28, 2015 at 5:00 PM


Visibility: N/A

Pressure: 29.80 "Hg

Humidity: 59%

Dew point: 45 °F

Location of TiraspolLocation

Historic Weather in Tiraspol — Graph

°F

Tiraspol temperature yesterday

Maximum temperature yesterday: 79 °F (at 2:00 PM)
Minimum temperature yesterday: 55 °F (at 6:00 AM)
Average temperature yesterday: 68 °F

Past Weeks' High & Low Weather Summary

 TemperatureHumidityPressure
High84 °F (May 24, 3:30 PM)88% (May 19, 6:00 AM)30.09 "Hg (May 19, 6:00 AM)
Low46 °F (May 17, 3:30 AM)23% (May 23, 3:00 PM)29.59 "Hg (May 26, 6:30 PM)
Average67 °F51%29.90 "Hg
* Reported May 13 4:00 PM — May 28 4:30 PM, Tiraspol, Weather by CustomWeather, © 2015

Note: Actual official high and low records may vary slightly from our data, if they occured in-between our weather recording intervals... More about our weather records

Advertising

Tiraspol weather history for previous 24 hours

 ConditionsComfort  
Time TempWeatherWind HumidityBarometerVisibility
4:30 PM
Thu, May 28
59 °FOvercast.18 mph55%29.80 "HgN/A
4:00 PM59 °FOvercast.20 mph59%29.80 "HgN/A
3:30 PM59 °FOvercast.18 mph55%29.80 "HgN/A
3:00 PM59 °FOvercast.21 mph59%29.80 "HgN/A
2:30 PM59 °FOvercast.17 mph59%29.80 "HgN/A
2:00 PM59 °FOvercast.18 mph59%29.80 "HgN/A
1:30 PM59 °FOvercast.17 mph59%29.80 "HgN/A
1:00 PM59 °FOvercast.17 mph59%29.80 "HgN/A
12:00 PM57 °FOvercast.17 mph63%29.80 "HgN/A
11:30 AM57 °FOvercast.17 mph63%29.80 "HgN/A
11:00 AM55 °FOvercast.15 mph67%29.80 "HgN/A
10:00 AM55 °FOvercast.15 mph67%29.80 "HgN/A
9:30 AM55 °FOvercast.17 mph67%29.80 "HgN/A
9:00 AM55 °FOvercast.13 mph67%29.80 "HgN/A
7:30 AM54 °FOvercast.14 mph67%29.77 "HgN/A
7:00 AM54 °FOvercast.14 mph72%29.77 "HgN/A
6:30 AM54 °FOvercast.14 mph72%29.77 "HgN/A
6:00 AM54 °FOvercast.18 mph67%29.77 "HgN/A
5:30 AM54 °FOvercast.20 mph67%29.77 "HgN/A
5:00 AM54 °FOvercast.20 mph67%29.74 "HgN/A
4:30 AM54 °FPassing clouds.16 mph67%29.74 "HgN/A
2:30 AM54 °FPartly cloudy.14 mph67%29.74 "HgN/A
1:30 AM54 °FPartly cloudy.17 mph67%29.74 "HgN/A
12:00 AM55 °FPartly cloudy.12 mph67%29.77 "HgN/A
11:00 PM
Wed, May 27
57 °FPassing clouds.17 mph67%29.74 "HgN/A
10:30 PM57 °FPassing clouds.13 mph67%29.74 "HgN/A
10:00 PM59 °FPassing clouds.8 mph63%29.74 "HgN/A
9:30 PM61 °FScattered clouds.14 mph63%29.74 "HgN/A
9:00 PM63 °FScattered clouds.17 mph59%29.68 "HgN/A
8:30 PM68 °FScattered clouds.16 mph56%29.68 "HgN/A
8:00 PM70 °FScattered clouds.16 mph53%29.65 "HgN/A
7:30 PM72 °FScattered clouds.16 mph50%29.65 "HgN/A
7:00 PM75 °FScattered clouds.8 mph36%29.62 "HgN/A
6:30 PM77 °FScattered clouds.14 mph32%29.62 "HgN/A
6:00 PM79 °FScattered clouds.9 mph30%29.62 "HgN/A
5:00 PM79 °FScattered clouds.12 mph32%29.62 "HgN/A
Weather by CustomWeather, © 2015

See weather overviewHow to use our weather pages